EW9010 Weather Reports


time (UTC)temp
F
wind
direction
speed
knots
gust
knots
rain 1hr
in
rain 24hr
in
rain mn
in
humidity
%
barometer
mb
20260508044005 44 244 18.2 29.5 0.00 0.00 0.00 90 1004.2
20260508043504 44 242 21.7 29.5 0.00 0.00 0.00 90 1004.0
20260508043005 44 235 15.6 26.9 0.00 0.00 0.00 89 1004.2
20260508042504 45 241 17.4 30.4 0.00 0.00 0.00 89 1004.0
20260508042005 45 242 17.4 30.4 0.00 0.00 0.00 89 1004.0
20260508041504 45 244 20.9 31.3 0.00 0.00 0.00 88 1004.1
20260508041005 45 248 14.8 31.3 0.00 0.00 0.00 88 1003.9
20260508040006 45 244 20.0 31.3 0.00 0.00 0.00 89 1004.0
20260508035504 45 239 22.6 31.3 0.00 0.00 0.00 89 1003.9
20260508035005 45 244 19.1 29.5 0.00 0.00 0.00 89 1004.1
20260508034005 45 254 18.2 29.5 0.00 0.00 0.00 88 1004.1
20260508032506 45 252 20.0 28.7 0.00 0.00 0.00 87 1004.1
20260508032005 45 235 17.4 28.7 0.00 0.00 0.00 87 1004.1
20260508031504 45 241 13.9 26.9 0.00 0.00 0.00 86 1004.1
20260508031006 45 233 16.5 26.1 0.00 0.00 0.00 87 1004.2
20260508030006 44 222 18.2 28.7 0.00 0.00 0.00 87 1004.2
20260508024505 44 254 20.0 29.5 0.00 0.00 0.00 87 1004.3
20260508023507 44 229 19.1 29.5 0.00 0.00 0.00 87 1004.1
20260508023005 44 240 14.8 31.3 0.00 0.00 0.00 87 1004.2
20260508022504 44 231 14.8 31.3 0.00 0.00 0.00 87 1004.1
20260508022006 44 206 20.0 28.7 0.00 0.00 0.00 88 1004.2
20260508021505 44 230 14.8 33.0 0.00 0.00 0.00 88 1004.2
20260508021005 44 252 18.2 33.0 0.00 0.00 0.00 88 1004.5
20260508020504 44 245 13.9 32.2 0.00 0.00 0.00 88 1004.4
20260508020006 44 242 15.6 32.2 0.00 0.00 0.00 88 1004.5
20260508015505 44 233 23.5 32.2 0.00 0.00 0.00 88 1004.5
20260508014504 44 248 13.9 33.9 0.00 0.00 0.00 87 1004.5
20260508014006 45 247 20.0 33.9 0.00 0.00 0.00 87 1004.5
20260508013504 45 240 14.8 27.8 0.00 0.00 0.00 86 1004.5
20260508013006 45 238 17.4 27.8 0.00 0.00 0.00 86 1004.5
20260508012006 45 246 17.4 32.2 0.00 0.00 0.00 86 1004.6
20260508011508 45 239 16.5 26.1 0.00 0.00 0.00 86 1004.8
20260508011005 45 236 17.4 27.8 0.00 0.00 0.00 85 1004.7
20260508010504 45 253 18.2 27.8 0.00 0.00 0.00 84 1004.9
20260508010006 44 262 9.6 23.5 0.00 0.00 0.00 84 1004.7
20260508005505 44 247 16.5 23.5 0.00 0.00 0.00 84 1004.7
20260508004504 44 245 15.6 29.5 0.00 0.00 0.00 83 1004.6
20260508002505 44 257 18.2 29.5 0.00 0.00 0.00 83 1004.7
20260508002006 44 252 18.2 34.8 0.00 0.00 0.00 83 1004.8
20260508001505 44 247 19.1 34.8 0.00 0.00 0.00 83 1004.6
20260508001006 44 247 15.6 31.3 0.00 0.01 0.00 83 1004.5
20260508000505 44 252 22.6 31.3 0.00 0.01 0.00 83 1004.6
20260508000006 44 250 13.9 24.3 0.00 0.01 0.00 83 1004.5
20260507235505 44 238 16.5 24.3 0.00 0.01 0.00 83 1004.8
20260507235006 44 250 14.8 29.5 0.00 0.01 0.00 83 1004.8
20260507233506 45 236 9.6 29.5 0.00 0.03 0.00 86 1005.0
20260507233006 45 231 18.2 33.9 0.00 0.03 0.00 87 1004.9
20260507232507 45 245 22.6 33.9 0.00 0.03 0.00 88 1004.8
20260507232006 45 249 14.8 27.8 0.00 0.03 0.00 88 1004.9
20260507231505 45 248 13.0 26.1 0.00 0.04 0.00 89 1004.8
20260507231006 45 238 17.4 31.3 0.00 0.06 0.00 89 1004.6
20260507230505 45 235 13.0 31.3 0.00 0.08 0.00 90 1004.6
20260507224506 46 347 14.8 29.5 0.00 0.16 0.00 91 1004.8
20260507224006 46 302 25.2 29.5 0.00 0.17 0.00 91 1004.7
20260507223505 46 244 18.2 29.5 0.00 0.18 0.00 91 1004.6
20260507223006 46 347 14.8 26.1 0.00 0.18 0.00 92 1004.6
20260507221504 47 13 18.2 27.8 0.00 0.19 0.00 93 1004.6
20260507221009 47 299 13.0 23.5 0.00 0.19 0.00 93 1004.5
20260507220504 47 332 13.0 21.7 0.00 0.21 0.00 93 1004.6
20260507215005 48 332 13.9 22.6 0.00 0.27 0.00 92 1004.3
20260507214504 48 349 10.4 29.5 0.00 0.38 0.00 92 1004.1
20260507214005 48 1 14.8 29.5 0.00 0.38 0.00 92 1004.0
20260507213504 48 342 14.8 23.5 0.00 0.40 0.00 92 1004.1
20260507213005 48 310 14.8 23.5 0.00 0.52 0.00 92 1003.8
20260507212005 48 250 12.2 23.5 0.00 0.52 0.00 92 1003.5
20260507211504 48 237 13.9 20.0 0.00 0.52 0.00 92 1003.5
20260507211006 48 233 13.0 25.2 0.00 0.52 0.00 92 1003.4
20260507210504 48 240 13.0 25.2 0.00 0.52 0.00 92 1003.5
20260507210006 49 243 15.6 26.1 0.00 0.53 0.00 92 1003.3
20260507205505 49 242 15.6 26.1 0.00 0.55 0.00 93 1003.2
20260507204504 49 242 16.5 26.9 0.00 0.55 0.00 94 1003.1
20260507204005 49 248 15.6 21.7 0.00 0.55 0.00 94 1003.3
20260507203504 49 240 12.2 26.1 0.00 0.55 0.00 94 1003.4
20260507203006 49 245 12.2 26.1 0.00 0.55 0.00 94 1003.7
20260507202504 49 238 15.6 22.6 0.00 0.55 0.00 93 1003.6
20260507202005 49 231 15.6 22.6 0.00 0.55 0.00 93 1003.8
20260507201504 49 244 13.0 21.7 0.00 0.55 0.00 93 1003.6
20260507201005 49 238 13.0 21.7 0.00 0.55 0.00 93 1004.0
20260507200504 49 217 14.8 23.5 0.00 0.55 0.00 92 1003.7
20260507200005 49 224 16.5 23.5 0.00 0.55 0.00 92 1003.9
20260507195504 49 236 14.8 20.9 0.00 0.55 0.00 91 1003.9
20260507195006 50 236 12.2 27.8 0.00 0.56 0.00 91 1003.9
20260507194505 50 244 13.0 27.8 0.00 0.56 0.00 90 1004.0
20260507194005 50 252 10.4 25.2 0.00 0.56 0.00 89 1003.9
20260507193504 51 254 16.5 25.2 0.00 0.56 0.00 89 1004.0
20260507193005 51 255 13.0 26.1 0.00 0.56 0.00 88 1003.7
20260507192504 51 249 15.6 26.1 0.00 0.56 0.00 88 1003.9
20260507192005 51 237 15.6 24.3 0.00 0.56 0.00 87 1003.6
20260507191504 51 231 14.8 24.3 0.00 0.56 0.00 87 1003.8
20260507191005 52 223 14.8 23.5 0.00 0.56 0.00 87 1003.8
20260507190504 52 230 15.6 23.5 0.00 0.56 0.00 87 1004.0
20260507185504 53 253 9.6 22.6 0.00 0.57 0.00 84 1003.7
20260507185005 53 234 18.2 22.6 0.00 0.57 0.00 84 1003.8
20260507184005 53 255 14.8 22.6 0.00 0.57 0.00 84 1003.4
20260507183504 53 246 10.4 23.5 0.00 0.57 0.00 85 1003.4
20260507183006 53 220 18.2 23.5 0.00 0.57 0.00 85 1003.2
20260507182504 53 227 16.5 26.9 0.00 0.57 0.00 86 1003.2
20260507182005 53 254 15.6 26.9 0.00 0.57 0.00 86 1003.2
20260507181504 53 259 9.6 20.9 0.00 0.57 0.00 86 1003.0
20260507181005 52 238 13.0 20.9 0.00 0.57 0.00 87 1003.1
20260507180504 52 231 14.8 23.5 0.00 0.57 0.00 87 1003.2
20260507180005 53 247 13.0 23.5 0.00 0.57 0.00 86 1003.1
20260507175504 53 244 13.0 22.6 0.00 0.57 0.00 85 1003.1
20260507174504 54 216 12.2 26.9 0.00 0.57 0.00 84 1003.1
20260507174005 54 210 14.8 26.9 0.00 0.57 0.00 85 1002.8
20260507173504 54 232 13.0 23.5 0.00 0.57 0.00 86 1002.7
20260507173005 53 233 14.8 23.5 0.00 0.58 0.00 87 1002.8
20260507172507 54 200 14.8 23.5 0.00 0.58 0.00 87 1003.1
20260507172005 54 192 13.9 22.6 0.00 0.58 0.00 87 1003.2
20260507171504 54 209 10.4 22.6 0.00 0.58 0.00 86 1003.1
20260507171005 54 222 10.4 22.6 0.00 0.58 0.00 85 1003.2
20260507170504 55 225 11.3 24.3 0.00 0.58 0.00 85 1003.1
20260507170005 55 346 14.8 26.1 0.00 0.58 0.00 86 1002.9
20260507165504 54 1 13.0 26.1 0.00 0.58 0.00 87 1002.9
20260507165005 54 178 20.0 26.1 0.00 0.58 0.00 89 1003.0
20260507164504 54 3 7.0 18.2 0.00 0.58 0.00 89 1002.9
20260507164005 54 1 12.2 22.6 0.00 0.58 0.00 89 1002.9
20260507163504 54 350 14.8 22.6 0.00 0.60 0.00 89 1002.9
20260507162005 54 338 19.1 27.8 0.00 0.60 0.00 89 1002.9
20260507161503 54 267 16.5 27.8 0.00 0.61 0.00 90 1003.0
20260507161004 54 225 14.8 25.2 0.00 0.61 0.00 90 1002.7
20260507160506 53 213 8.7 22.6 0.00 0.64 0.00 90 1002.5
20260507155507 54 1 16.5 21.7 0.00 0.64 0.00 89 1002.8
20260507155008 54 335 13.0 21.7 0.00 0.65 0.00 88 1002.9
20260507154507 55 292 14.8 20.0 0.00 0.65 0.00 87 1002.9
20260507153007 55 351 11.3 18.2 0.00 0.66 0.00 84 1002.8
20260507152506 56 210 9.6 18.2 0.00 0.66 0.00 84 1002.7
20260507152008 56 252 8.7 18.2 0.00 0.68 0.00 84 1002.6
20260507151007 56 234 10.4 18.2 0.00 0.69 0.00 85 1002.5
20260507150506 56 134 11.3 18.2 0.00 0.69 0.00 86 1002.7
20260507150007 55 169 12.2 14.8 0.00 0.69 0.00 86 1002.7
20260507145506 55 179 7.0 16.5 0.00 0.69 0.00 86 1002.7
20260507145008 55 194 7.0 16.5 0.00 0.69 0.00 86 1002.6
20260507143506 56 177 7.0 14.8 0.00 0.69 0.00 85 1002.8
20260507143007 56 174 7.0 14.8 0.00 0.69 0.00 85 1002.7
20260507142506 56 192 6.1 14.8 0.00 0.69 0.00 85 1002.4
20260507142007 56 217 5.2 14.8 0.00 0.71 0.00 83 1002.0
20260507141506 56 207 9.6 14.8 0.00 0.71 0.00 83 1002.1
20260507141007 56 352 9.6 13.9 0.00 0.71 0.00 83 1002.1
20260507140507 56 339 7.0 11.3 0.00 0.71 0.00 83 1002.1
20260507135510 56 336 8.7 11.3 0.00 0.74 0.00 82 1002.4
20260507134007 56 317 7.0 9.6 0.00 0.77 0.00 84 1002.4
20260507133506 56 339 6.1 13.0 0.00 0.78 0.00 85 1002.4
20260507133007 56 345 3.5 13.0 0.00 0.88 0.00 87 1002.4
20260507132506 56 339 10.4 14.8 0.00 1.00 0.00 91 1002.4
20260507132007 56 353 9.6 15.6 0.00 1.01 0.00 93 1002.4
20260507131506 55 353 7.8 15.6 0.00 1.05 0.00 95 1002.5
20260507131007 55 325 7.0 14.8 0.00 1.10 0.00 96 1002.5
20260507130506 55 299 8.7 14.8 0.00 1.14 0.00 97 1002.8
20260507130007 54 311 3.5 10.4 0.00 1.17 0.00 97 1002.6
20260507125506 54 342 2.6 7.8 0.00 1.22 0.00 97 1002.6
20260507125007 53 332 2.6 9.6 0.00 1.23 0.00 97 1002.4
20260507124506 53 309 5.2 9.6 0.00 1.23 0.00 97 1003.0
20260507124007 52 321 4.3 8.7 0.00 1.23 0.00 98 1002.7
20260507122506 52 325 4.3 7.8 0.00 1.25 0.00 98 1002.7
20260507122007 51 311 3.5 7.8 0.00 1.25 0.00 98 1002.6
20260507121506 51 311 3.5 6.1 0.00 1.26 0.00 98 1002.5
20260507121007 51 301 3.5 4.3 0.00 1.27 0.00 98 1002.6
20260507120506 51 338 1.7 3.5 0.00 1.27 0.00 98 1002.6
20260507120007 51 339 1.7 3.5 0.00 1.27 0.00 98 1002.7
20260507115507 51 328 1.7 3.5 0.00 1.27 0.00 99 1002.6
20260507114506 51 224 0.0 3.5 0.00 1.27 0.00 99 1002.6
20260507114007 50 240 1.7 5.2 0.00 1.27 0.00 99 1002.7
20260507113007 50 185 2.6 6.1 0.00 1.27 0.00 99 1002.8
20260507112007 50 1 4.3 6.1 0.00 1.27 0.00 99 1003.1
20260507111507 50 1 1.7 2.6 0.00 1.27 0.00 99 1003.0
20260507110506 50 0 0.0 0.0 0.00 1.27 0.00 99 1003.5
20260507110007 50 170 0.0 3.5 0.00 1.27 0.00 99 1003.3
20260507105506 50 166 0.0 4.3 0.00 1.27 0.00 99 1003.1
20260507105007 50 171 1.7 4.3 0.00 1.31 0.00 99 1003.3
20260507104506 51 169 1.7 4.3 0.00 1.31 0.00 99 1003.1
20260507104007 51 157 1.7 6.1 0.00 1.33 0.00 98 1003.1
20260507103506 51 162 3.5 6.1 0.00 1.33 0.00 98 1003.5
20260507103007 51 179 1.7 4.3 0.00 1.33 0.00 98 1003.7
20260507102506 51 181 1.7 4.3 0.00 1.33 0.00 98 1003.7
20260507102007 51 179 1.7 4.3 0.00 1.33 0.00 98 1003.8
20260507101507 51 155 1.7 9.6 0.00 1.33 0.00 98 1004.0
20260507101007 51 194 2.6 9.6 0.00 1.33 0.00 98 1004.3
20260507100506 51 254 1.7 5.2 0.00 1.33 0.00 98 1004.2
20260507100007 51 217 3.5 4.3 0.00 1.33 0.00 98 1004.2
20260507095506 51 269 1.7 4.3 0.00 1.33 0.00 98 1004.3
20260507095007 51 270 2.6 4.3 0.00 1.33 0.00 98 1003.9
20260507094007 51 187 1.7 2.6 0.00 1.33 0.00 98 1004.3
20260507093506 51 142 0.0 3.5 0.00 1.33 0.00 98 1004.2
20260507092008 52 145 1.7 9.6 0.00 1.33 0.00 98 1004.3
20260507091505 52 139 3.5 9.6 0.00 1.33 0.00 98 1004.2
20260507091007 52 147 7.0 9.6 0.00 1.33 0.00 98 1004.4
20260507090505 53 287 0.0 3.5 0.00 1.33 0.00 97 1004.0
20260507085505 52 279 1.7 4.3 0.00 1.33 0.00 98 1003.8
20260507084506 53 281 1.7 3.5 0.00 1.33 0.00 97 1003.8
20260507084007 53 272 1.7 3.5 0.00 1.33 0.00 97 1003.9
20260507083506 53 273 0.9 3.5 0.00 1.33 0.00 97 1003.9
20260507083006 53 274 2.6 3.5 0.00 1.33 0.00 97 1004.0
20260507082506 53 272 1.7 3.5 0.00 1.33 0.00 97 1003.8
20260507082007 53 270 1.7 3.5 0.00 1.33 0.00 97 1003.6
20260507081505 53 220 1.7 4.3 0.00 1.33 0.00 96 1003.8
20260507081006 53 176 1.7 4.3 0.00 1.33 0.00 96 1004.0
20260507080505 53 212 1.7 3.5 0.00 1.33 0.00 96 1004.0
20260507080007 53 270 0.0 1.7 0.00 1.33 0.00 96 1003.9
20260507075505 53 270 0.0 2.6 0.00 1.33 0.00 96 1004.2
20260507075007 53 270 0.0 3.5 0.00 1.33 0.00 96 1004.0
20260507074505 53 273 1.7 3.5 0.00 1.33 0.00 96 1004.3
20260507074006 53 299 2.6 3.5 0.00 1.33 0.00 96 1004.6
20260507073505 53 300 3.5 3.5 0.00 1.33 0.00 96 1004.5
20260507073006 53 286 1.7 4.3 0.00 1.33 0.00 96 1004.3
20260507072505 53 328 1.7 5.2 0.00 1.33 0.00 95 1004.4
20260507072006 53 351 1.7 5.2 0.00 1.33 0.00 95 1004.3
20260507071505 53 1 2.6 4.3 0.00 1.33 0.00 95 1004.3
20260507071006 53 319 1.7 3.5 0.00 1.33 0.00 95 1004.1
20260507070505 53 271 1.7 3.5 0.00 1.33 0.00 95 1004.4
20260507070010 53 270 2.6 3.5 0.00 1.33 0.00 95 1004.7
20260507065505 53 274 1.7 2.6 0.00 1.33 0.00 96 1004.6
20260507065006 53 317 0.9 3.5 0.00 1.33 0.00 96 1004.4
20260507064505 53 350 1.7 7.0 0.00 1.33 0.00 97 1004.2
20260507063505 53 350 3.5 7.0 0.00 1.33 0.00 97 1003.7
20260507063006 53 343 2.6 8.7 0.00 1.33 0.00 97 1003.6
20260507062505 53 354 4.3 9.6 0.00 1.33 0.00 97 1003.6
20260507062006 53 1 6.1 11.3 0.00 1.33 0.00 97 1003.3
20260507061505 53 331 6.1 13.0 0.00 1.33 0.00 97 1003.2
20260507061006 53 333 7.8 13.0 0.00 1.33 0.00 97 1003.2
20260507060506 53 1 7.0 12.2 0.00 1.33 0.00 97 1003.1
20260507060006 53 350 6.1 12.2 0.00 1.33 0.00 97 1003.1
20260507055006 53 350 4.3 9.6 0.00 1.33 0.00 97 1003.6
20260507054505 53 341 4.3 9.6 0.00 1.33 0.00 97 1003.8
20260507054006 53 354 6.1 9.6 0.00 1.33 0.00 97 1003.5
20260507053505 53 349 5.2 11.3 0.00 1.33 0.00 97 1003.8
20260507053006 52 338 7.0 11.3 0.00 1.33 0.00 98 1003.6
20260507052505 52 351 7.8 11.3 0.00 1.33 0.00 98 1004.5
20260507052006 52 1 4.3 7.8 0.00 1.33 0.00 98 1004.7
20260507051505 52 356 4.3 7.8 0.00 1.33 0.00 98 1004.6
20260507051006 52 341 4.3 7.0 0.00 1.33 0.00 98 1004.9
20260507050505 52 350 4.3 7.0 0.00 1.33 0.00 98 1005.3
20260507050006 52 1 3.5 7.0 0.00 1.33 0.00 98 1005.1
20260507045505 52 322 2.6 5.2 0.00 1.33 0.00 98 1005.1
20260507045006 52 290 3.5 5.2 0.00 1.33 0.00 98 1005.2